星链-31662 (STARLINK-31662 )

导读

STARLINK-31662是美国SpaceX公司于2024年4月23日发射的星链系列卫星,属于星链低轨互联网星座的组成部分,运行在近地轨道,为全球偏远、欠发达地区提供高速低延迟宽带互联网接入服务,可满足视频通话、在线游戏等应用需求。星链星座持续扩容,该卫星的入轨进一步推进了全球覆盖目标,但星链计划也带来太空垃圾、天文干扰等争议问题。

基本信息
目录编号:
59584
目录名称:
STARLINK-31662
国际标识:
2024-076W
轨道中心:
EARTH
卫星名称:
星链-31662
卫星全名:
星链-31662 (STARLINK-31662 )
卫星状态:
在轨 (已飞行786 天)
发射日期:
2024-04-23 UTC
国别 :
美国 (US)
星等 :
--
轨道信息
数据来源 国际轨道数据 AOE轨道数据
星历时间 2026-06-17T00:47:38+0800
1天前
查看轨道信息
2026-06-18T01:00:00+0800
10小时前
查看轨道信息
半长轴 6861.191km 6861.236km
偏心率 0.0001385 0.0001358
轨道倾角 42.999° 42.999°
近地点辐角 278.986° 266.116°
升交点赤经 169.951° 164.257°
平近点角 81.084° 246.939°
近地点 482.103km 482.167km
远地点 484.005km 484.031km
周期 94.267分钟 94.268分钟
每日圈数 15.275785 15.275634
详细信息
固有亮度:
5
最大亮度:
1.5
卫星平台:
Starlink v2.0 mini
覆盖范围:
全球
运营商:
太空探索技术公司
运营商所在国:
美国
制造商(研发单位):
太空探索技术公司
制造商所在国:
美国
使用方式:
暂无
卫星简介
星链(Starlink)计划是由太空探索技术公司(SpaceX)提出的一个巨型低轨卫星互联网星座项目,计划在2019年至2024年间在太空搭建由约1.2万颗卫星组成的“星链”网络,其中1584颗将部署在地球上空550千米处的近地轨道,并从2020年开始工作。该卫星仍在工作。
2D轨道图
3D轨道图
轨道高度分析图
轨道倾角分析图
轨道综合分析图
查看轨道综合分析图